Time,TemperatureF,DewpointF,PressureIn,WindDirection,WindDirectionDegrees,WindSpeedMPH,WindSpeedGustMPH,Humidity,HourlyPrecipIn,Conditions,Clouds,dailyrainin,SoftwareType,DateUTC
2017-06-24 00:03:00,51.6,48.2,30.20,WSW,253,0.0,0.0,88,0.00,CLR,,0.00,WeatherDisplay:10.37,2017-06-24 08:03:00,
2017-06-24 00:08:00,51.5,48.1,30.20,WSW,253,0.0,0.0,88,0.00,CLR,,0.00,WeatherDisplay:10.37,2017-06-24 08:08:00,
2017-06-24 00:13:00,51.4,48.0,30.20,WSW,253,0.0,0.0,88,0.00,CLR,,0.00,WeatherDisplay:10.37,2017-06-24 08:13:00,
2017-06-24 00:18:00,51.3,48.2,30.20,WSW,253,0.0,0.0,89,0.00,CLR,,0.00,WeatherDisplay:10.37,2017-06-24 08:18:00,
2017-06-24 00:23:00,51.2,48.1,30.20,WSW,253,0.0,0.0,89,0.00,CLR,,0.00,WeatherDisplay:10.37,2017-06-24 08:23:00,
2017-06-24 00:28:00,51.2,48.1,30.20,WSW,253,0.0,0.0,89,0.00,CLR,,0.00,WeatherDisplay:10.37,2017-06-24 08:28:00,
2017-06-24 00:33:00,51.2,48.1,30.20,WSW,253,0.0,0.0,89,0.00,CLR,,0.00,WeatherDisplay:10.37,2017-06-24 08:33:00,
2017-06-24 00:38:00,51.1,48.0,30.20,WSW,253,0.0,0.0,89,0.00,CLR,,0.00,WeatherDisplay:10.37,2017-06-24 08:38:00,
2017-06-24 00:43:00,51.0,47.9,30.20,WSW,253,0.0,0.0,89,0.00,CLR,,0.00,WeatherDisplay:10.37,2017-06-24 08:43:00,
2017-06-24 00:48:00,51.0,47.9,30.20,WSW,253,0.0,0.0,89,0.00,CLR,,0.00,WeatherDisplay:10.37,2017-06-24 08:48:00,
2017-06-24 00:53:00,51.0,48.2,30.19,WSW,253,0.0,0.0,90,0.00,CLR,,0.00,WeatherDisplay:10.37,2017-06-24 08:53:00,
2017-06-24 00:58:00,50.9,48.1,30.19,WSW,253,0.0,0.0,90,0.00,CLR,,0.00,WeatherDisplay:10.37,2017-06-24 08:58:00,
2017-06-24 01:03:00,50.8,48.0,30.19,WSW,253,0.0,0.0,90,0.00,CLR,,0.00,WeatherDisplay:10.37,2017-06-24 09:03:00,
2017-06-24 01:08:00,50.8,48.0,30.20,WSW,253,0.0,0.0,90,0.00,CLR,,0.00,WeatherDisplay:10.37,2017-06-24 09:08:00,
2017-06-24 01:14:00,50.7,47.9,30.19,WSW,253,0.0,0.0,90,0.00,CLR,,0.00,WeatherDisplay:10.37,2017-06-24 09:14:00,
2017-06-24 01:19:00,50.7,47.9,30.20,WSW,253,0.0,0.0,90,0.00,CLR,,0.00,WeatherDisplay:10.37,2017-06-24 09:19:00,
2017-06-24 01:24:00,50.6,47.8,30.20,WSW,253,0.0,0.0,90,0.00,CLR,,0.00,WeatherDisplay:10.37,2017-06-24 09:24:00,
2017-06-24 01:29:00,50.6,47.8,30.20,WSW,253,0.0,0.0,90,0.00,CLR,,0.00,WeatherDisplay:10.37,2017-06-24 09:29:00,
2017-06-24 01:34:00,50.5,47.7,30.20,WSW,253,0.0,0.0,90,0.00,CLR,,0.00,WeatherDisplay:10.37,2017-06-24 09:34:00,
2017-06-24 01:39:00,50.4,47.6,30.20,WSW,253,0.0,0.0,90,0.00,CLR,,0.00,WeatherDisplay:10.37,2017-06-24 09:39:00,
2017-06-24 01:44:00,50.3,47.5,30.20,WSW,253,0.0,0.0,90,0.00,CLR,,0.00,WeatherDisplay:10.37,2017-06-24 09:44:00,
2017-06-24 01:49:00,50.1,47.3,30.19,WSW,253,0.0,0.0,90,0.00,CLR,,0.00,WeatherDisplay:10.37,2017-06-24 09:49:00,
2017-06-24 01:54:00,49.9,47.1,30.20,WSW,253,0.0,0.0,90,0.00,CLR,,0.00,WeatherDisplay:10.37,2017-06-24 09:54:00,
2017-06-24 01:59:00,49.7,46.9,30.20,WSW,253,0.0,0.0,90,0.00,CLR,,0.00,WeatherDisplay:10.37,2017-06-24 09:59:00,
2017-06-24 02:04:00,49.5,46.7,30.20,WSW,253,0.0,0.0,90,0.00,CLR,,0.00,WeatherDisplay:10.37,2017-06-24 10:04:00,
2017-06-24 02:09:00,49.3,46.8,30.20,WSW,253,0.0,0.0,91,0.00,CLR,,0.00,WeatherDisplay:10.37,2017-06-24 10:09:00,
2017-06-24 02:14:00,49.0,46.5,30.19,WSW,253,0.0,0.0,91,0.00,CLR,,0.00,WeatherDisplay:10.37,2017-06-24 10:14:00,
2017-06-24 02:19:00,48.9,46.4,30.19,WSW,253,0.0,0.0,91,0.00,CLR,,0.00,WeatherDisplay:10.37,2017-06-24 10:19:00,
2017-06-24 02:24:00,48.6,46.1,30.19,WSW,253,0.0,0.0,91,0.00,CLR,,0.00,WeatherDisplay:10.37,2017-06-24 10:24:00,
2017-06-24 02:29:00,48.3,45.8,30.19,WSW,253,0.0,0.0,91,0.00,CLR,,0.00,WeatherDisplay:10.37,2017-06-24 10:29:00,
2017-06-24 02:34:00,48.1,45.6,30.19,WSW,253,0.0,0.0,91,0.00,CLR,,0.00,WeatherDisplay:10.37,2017-06-24 10:34:00,
2017-06-24 02:39:00,47.8,45.3,30.19,WSW,253,0.0,0.0,91,0.00,CLR,,0.00,WeatherDisplay:10.37,2017-06-24 10:39:00,
2017-06-24 02:44:00,47.6,45.4,30.19,WSW,253,0.0,0.0,92,0.00,CLR,,0.00,WeatherDisplay:10.37,2017-06-24 10:44:00,
2017-06-24 02:49:00,47.4,45.2,30.19,WSW,253,0.0,0.0,92,0.00,CLR,,0.00,WeatherDisplay:10.37,2017-06-24 10:49:00,
2017-06-24 02:54:00,47.2,45.0,30.19,WSW,253,0.0,0.0,92,0.00,CLR,,0.00,WeatherDisplay:10.37,2017-06-24 10:54:00,
2017-06-24 02:59:00,47.0,44.8,30.19,WSW,253,0.0,0.0,92,0.00,CLR,,0.00,WeatherDisplay:10.37,2017-06-24 10:59:00,
2017-06-24 03:04:00,46.7,44.5,30.19,WSW,253,0.0,0.0,92,0.00,CLR,,0.00,WeatherDisplay:10.37,2017-06-24 11:04:00,
2017-06-24 03:09:00,46.5,44.3,30.19,WSW,253,0.0,0.0,92,0.00,CLR,,0.00,WeatherDisplay:10.37,2017-06-24 11:09:00,
2017-06-24 03:14:00,46.3,44.1,30.19,WSW,253,0.0,0.0,92,0.00,CLR,,0.00,WeatherDisplay:10.37,2017-06-24 11:14:00,
2017-06-24 03:19:00,46.1,43.9,30.19,WSW,253,0.0,0.0,92,0.00,CLR,,0.00,WeatherDisplay:10.37,2017-06-24 11:19:00,
2017-06-24 03:24:00,45.9,43.7,30.19,WSW,253,0.0,0.0,92,0.00,CLR,,0.00,WeatherDisplay:10.37,2017-06-24 11:24:00,
2017-06-24 03:29:00,45.7,43.8,30.19,WSW,253,0.0,0.0,93,0.00,CLR,,0.00,WeatherDisplay:10.37,2017-06-24 11:29:00,
2017-06-24 03:34:00,45.5,43.6,30.19,WSW,253,0.0,0.0,93,0.00,CLR,,0.00,WeatherDisplay:10.37,2017-06-24 11:34:00,
2017-06-24 03:39:00,45.4,43.5,30.19,WSW,253,0.0,0.0,93,0.00,CLR,,0.00,WeatherDisplay:10.37,2017-06-24 11:39:00,
2017-06-24 03:45:00,45.1,43.2,30.19,WSW,253,0.0,0.0,93,0.00,CLR,,0.00,WeatherDisplay:10.37,2017-06-24 11:45:00,